[[{"header":{"parameterUnit":"m.s-1","parameterCategory":1,"la1":30.2991,"la2":30.254,"lo1":-89.0895,"lo2":-89.0444,"dy":0.0017,"dx":0.0017,"nx":28,"ny":28,"refTime":"2024-08-25T03:00:00:Z","depth":0,"parameterNumber":2,"parameterNumberName":"U-component_of_WINDS"},"data":[0,0,0,0,0,0,0,0,0,0,0,0,0,0,0,0,0,0,0,0,0,0,0,0,0,0,0,0,0,0,0,0,0,0,0,0,0,0,0,0,0,0,0,0,0,0,0,0,0,0,0,0,0,0,0,0,0,0,-3.3355,-3.3355,0,-3.3349,-3.3349,-3.3349,-3.3151,-3.3146,-3.3141,-3.3136,-3.3135,-3.314,-3.3144,0,0,0,0,0,0,0,0,0,0,0,0,0,-3.3198,-3.3202,-3.3355,-3.3355,-3.3355,-3.335,-3.3349,-3.3349,-3.3152,-3.3146,-3.314,-3.3134,-3.3133,-3.3139,-3.3145,0,0,0,0,0,0,0,0,0,0,0,0,0,-3.3237,-3.3204,-3.3355,-3.3256,-3.3247,-3.335,-3.3349,-3.3349,-3.3153,-3.3146,-3.3138,-3.3131,-3.3132,-3.3138,-3.3146,-3.3344,0,0,-3.3167,-3.3171,0,0,0,0,0,0,0,0,-3.3235,-3.3243,-3.3271,-3.3263,-3.3253,-3.3243,-3.3293,-3.3348,-3.3155,-3.3189,-3.3136,-3.3127,-3.3178,-3.318,-3.3196,-3.3344,-3.3344,-3.3168,-3.3172,-3.3175,-3.3177,0,0,0,0,0,0,0,-3.3233,-3.3242,-3.3353,-3.3271,-3.3261,-3.3213,-3.321,-3.3303,-3.3227,-3.3186,-3.3171,-3.3173,-3.3171,-3.319,-3.3195,-3.3344,-3.3168,-3.3174,-3.3179,-3.3181,-3.3655,-3.3662,0,0,0,0,0,0,-3.3243,-3.3242,-3.3353,-3.3353,-3.3225,-3.3222,-3.3218,-3.3254,-3.3225,-3.3213,-3.318,-3.3164,-3.3182,-3.3187,-3.3194,-3.3425,-3.3175,-3.3182,-3.3186,-3.3646,-3.3656,-3.3665,0,0,0,0,0,0,-3.3241,-3.3255,-3.3353,-3.3293,-3.3302,-3.3233,-3.3275,-3.3258,-3.3276,-3.3221,-3.3206,-3.3213,-3.3176,-3.3184,-3.3308,-3.3422,-3.3185,-3.3192,-3.3637,-3.3649,-3.3661,-3.3889,0,0,0,0,0,0,-3.3237,-3.3255,-3.333,-3.3296,-3.3306,-3.3467,-3.3281,-3.3264,-3.3289,-3.3268,-3.3248,-3.3237,-3.317,-3.3298,-3.3315,-3.3428,-3.3197,-3.3626,-3.3642,-3.3657,-3.3871,-3.3908,-3.394,0,0,0,0,0,-3.3232,-3.3395,-3.3335,-3.3349,-3.3397,-3.3474,-3.348,-3.3398,-3.3299,-3.3373,-3.3337,-3.3238,-3.3407,-3.3313,-3.333,-3.3447,-3.3619,-3.3638,-3.3656,-3.3856,-3.3901,-3.3939,0,0,0,0,0,0,-3.3446,-3.3389,-3.3321,-3.3478,-3.3482,-3.3441,-3.3532,-3.3448,-3.3482,-3.3462,-3.336,-3.3357,-3.3498,-3.3484,-3.338,-3.3637,-3.3495,-3.3518,-3.3642,-3.3684,-3.3717,-3.3719,-3.3203,0,0,0,0,0,-3.3511,-3.3577,-3.3524,-3.3668,-3.3673,-3.3603,-3.3633,-3.357,-3.3571,-3.3572,-3.3545,-3.3551,-3.3605,-3.3643,-3.369,-3.3867,-3.3861,-3.3956,-3.399,-3.4019,-3.404,-3.4134,-3.4176,-3.3726,-3.3726,-3.3726,0,0,-3.3647,-3.3624,-3.3672,-3.371,-3.3706,-3.3778,-3.3606,-3.3689,-3.3742,-3.3585,-3.37,-3.3681,-3.3681,-3.3833,-3.3898,-3.3826,-3.4163,-3.4042,-3.4065,-3.4072,-3.4157,-3.42,-3.4238,-3.3739,-3.3737,-3.3735,0,0,-3.3931,-3.392,-3.4039,-3.4038,-3.4032,-3.3984,-3.4013,-3.3984,-3.3964,-3.4078,-3.3962,-3.4023,-3.4118,-3.4123,-3.4138,-3.4423,-3.4334,-3.4441,-3.462,-3.4713,-3.4748,-3.4779,-3.4882,-3.492,-3.4463,-3.4463,-3.4464,0,-3.4102,-3.4204,-3.4111,-3.4202,-3.4222,-3.4081,-3.4201,-3.4205,-3.4217,-3.4235,-3.4152,-3.4269,-3.4258,-3.441,-3.4479,-3.4496,-3.4526,-3.4444,-3.475,-3.478,-3.4808,-3.4905,-3.4944,-3.4476,-3.4475,-3.4474,-3.4472,0,-3.4414,-3.4487,-3.4583,-3.4596,-3.4627,-3.4733,-3.4656,-3.4699,-3.4632,-3.4594,-3.4711,-3.4694,-3.4735,-3.4765,-3.4702,-3.4908,-3.4863,-3.4768,-3.4623,-3.4866,-3.4955,-3.4992,-3.4495,-3.4491,-3.4487,-3.4483,0,0,-3.4835,-3.4794,-3.4831,-3.4835,-3.4818,-3.4874,-3.4973,-3.501,-3.505,-3.5062,-3.5144,-3.5227,-3.5137,-3.5155,-3.509,-3.5171,-3.54,-3.5065,-3.5063,-3.5129,-3.5627,-3.5701,-3.5745,-3.5339,-3.5345,-3.5351,-3.5628,0,-3.5111,-3.5276,-3.5195,-3.5371,-3.5438,-3.5304,-3.539,-3.539,-3.5356,-3.5408,-3.537,-3.5432,-3.5308,-3.5318,-3.5392,-3.5356,-3.5499,-3.5335,-3.5416,-3.542,-3.5422,-3.5792,-3.587,-3.6132,-3.5662,-3.5668,-3.5672,0,-3.5456,-3.5481,-3.5664,-3.5634,-3.5659,-3.5738,-3.5766,-3.5817,-3.5815,-3.5784,-3.5803,-3.572,-3.5815,-3.5671,-3.5802,-3.5693,-3.572,-3.5708,-3.5716,-3.5722,-3.5562,-3.581,-3.6214,-3.6254,-3.5726,-3.5722,-3.5718,0,-3.5747,-3.5826,-3.5945,-3.5953,-3.5922,-3.598,-3.597,-3.5959,-3.5988,-3.6012,-3.603,-3.6067,-3.6087,-3.6118,-3.6047,-3.5948,-3.6189,-3.6038,-3.6168,-3.6171,-3.6227,-3.6225,-3.6643,-3.6242,-3.6242,-3.6241,-3.624,0,-3.6064,-3.6182,-3.6075,-3.615,-3.6277,-3.6182,-3.6311,-3.6287,-3.6278,-3.6346,-3.6232,-3.6298,-3.6199,-3.6256,-3.6201,-3.6319,-3.6329,-3.6308,-3.6293,-3.632,-3.6323,-3.6338,-3.6319,-3.6251,-3.6249,-3.6247,-3.6245,0,-3.6412,-3.6345,-3.6467,-3.6426,-3.6419,-3.6515,-3.648,-3.6548,-3.6505,-3.6592,-3.6607,-3.654,-3.6601,-3.6532,-3.6588,-3.6551,-3.6711,-3.6668,-3.6712,-3.6701,-3.6835,-3.6824,-3.7279,-3.7335,-3.6898,-3.6902,-3.6906,0,-3.662,-3.6707,-3.6675,-3.6712,-3.6708,-3.6768,-3.6795,-3.6705,-3.6739,-3.6742,-3.6809,-3.686,-3.6895,-3.6999,-3.6957,-3.6999,-3.6957,-3.7113,-3.6963,-3.6987,-3.6961,-3.6957,-3.6966,-3.7145,-3.715,-3.7155,-3.7158,0,-3.6997,-3.6959,-3.7003,-3.7035,-3.7071,-3.7092,-3.7105,-3.7142,-3.7048,-3.7092,-3.7151,-3.7179,-3.7235,-3.7287,-3.7317,-3.7307,-3.7219,-3.7205,-3.7238,-3.7267,-3.729,-3.7281,-3.6798,-3.7196,-3.7192,-3.7189,-3.7187,-3.7186,-3.7282,-3.7353,-3.7342,-3.7394,-3.7393,-3.7408,-3.7469,-3.7433,-3.7481,-3.7518,-3.7462,-3.7537,-3.7532,-3.7563,-3.7563,-3.7622,-3.7555,-3.7602,-3.7614,-3.7628,-3.7649,-3.7279,-3.7627,-3.7625,-3.7624,-3.7623,-3.7622,0,-3.7654,-3.764,-3.7688,-3.7709,-3.7751,-3.766,-3.767,-3.7711,-3.7778,-3.778,-3.7817,-3.7886,-3.7936,-3.7897,-3.7939,-3.7993,-3.7954,-3.8008,-3.8004,-3.8003,-3.7705,-3.7673,-3.8039,-3.8039,-3.8039,-3.8039,-3.8039,-3.8039,-3.7853,-3.7968,-3.793,-3.8044,-3.8028,-3.81,-3.8114,-3.8127,-3.8127,-3.8209,-3.825,-3.8223,-3.8209,-3.8249,-3.8291,-3.8278,-3.83,-3.8369,-3.8343,-3.8065,-3.8024,-3.7985,-3.7955,-3.8374,-3.8375,-3.8636,-3.8638,-3.864]},{"header":{"parameterUnit":"m.s-1","parameterCategory":1,"la1":30.2991,"la2":30.254,"lo1":-89.0895,"lo2":-89.0444,"dy":0.0017,"dx":0.0017,"nx":28,"ny":28,"refTime":"2024-08-25T03:00:00:Z","depth":0,"parameterNumber":3,"parameterNumberName":"V-component_of_WINDS"},"data":[0,0,0,0,0,0,0,0,0,0,0,0,0,0,0,0,0,0,0,0,0,0,0,0,0,0,0,0,0,0,0,0,0,0,0,0,0,0,0,0,0,0,0,0,0,0,0,0,0,0,0,0,0,0,0,0,0,0,-2.5739,-2.574,0,-2.5836,-2.5837,-2.5838,-2.589,-2.589,-2.5891,-2.5891,-2.5984,-2.5986,-2.5988,0,0,0,0,0,0,0,0,0,0,0,0,0,-2.5592,-2.5594,-2.5739,-2.574,-2.5741,-2.5836,-2.5837,-2.5839,-2.589,-2.589,-2.5891,-2.5891,-2.5983,-2.5986,-2.5988,0,0,0,0,0,0,0,0,0,0,0,0,0,-2.5669,-2.5595,-2.5739,-2.5779,-2.5783,-2.5836,-2.5837,-2.5839,-2.589,-2.589,-2.5891,-2.5891,-2.5982,-2.5985,-2.5989,-2.6007,0,0,-2.6,-2.6001,0,0,0,0,0,0,0,0,-2.5664,-2.5674,-2.5772,-2.5776,-2.5781,-2.5852,-2.582,-2.5895,-2.589,-2.5849,-2.5891,-2.5891,-2.5939,-2.5946,-2.5964,-2.6011,-2.6015,-2.6,-2.6002,-2.6004,-2.6005,0,0,0,0,0,0,0,-2.5659,-2.567,-2.5777,-2.5773,-2.5779,-2.579,-2.5801,-2.5834,-2.5892,-2.5853,-2.5857,-2.5868,-2.5942,-2.596,-2.5966,-2.6016,-2.6,-2.6003,-2.6005,-2.6007,-2.6082,-2.6082,0,0,0,0,0,0,-2.5648,-2.5665,-2.5774,-2.578,-2.5722,-2.5792,-2.5805,-2.5829,-2.5892,-2.5902,-2.5868,-2.587,-2.5954,-2.5962,-2.597,-2.5995,-2.6004,-2.6007,-2.6009,-2.6082,-2.6082,-2.6082,0,0,0,0,0,0,-2.5645,-2.5657,-2.577,-2.5724,-2.5739,-2.5795,-2.5821,-2.583,-2.5849,-2.5903,-2.5913,-2.5877,-2.5955,-2.5965,-2.5997,-2.5999,-2.6008,-2.6012,-2.6083,-2.6082,-2.6082,-2.6044,0,0,0,0,0,0,-2.564,-2.5656,-2.5665,-2.5724,-2.5742,-2.5798,-2.5821,-2.5832,-2.5856,-2.586,-2.5914,-2.5923,-2.5955,-2.5992,-2.6001,-2.6004,-2.6014,-2.6083,-2.6083,-2.6082,-2.6046,-2.6043,-2.6041,0,0,0,0,0,-2.5635,-2.5649,-2.5665,-2.5678,-2.5754,-2.5798,-2.5808,-2.5847,-2.5856,-2.5864,-2.5899,-2.5921,-2.5997,-2.5995,-2.6005,-2.6009,-2.6083,-2.6083,-2.6082,-2.6047,-2.6044,-2.6041,0,0,0,0,0,0,-2.5586,-2.5658,-2.5676,-2.571,-2.5748,-2.5807,-2.5819,-2.5842,-2.5877,-2.5879,-2.5924,-2.5936,-2.5964,-2.599,-2.5986,-2.6029,-2.6042,-2.6044,-2.6012,-2.6009,-2.6006,-2.5999,-2.6017,0,0,0,0,0,-2.558,-2.5612,-2.5672,-2.5696,-2.5714,-2.5763,-2.5784,-2.5811,-2.5851,-2.5866,-2.5903,-2.5939,-2.5972,-2.5992,-2.6024,-2.605,-2.6061,-2.6057,-2.6055,-2.6052,-2.6053,-2.6068,-2.6066,-2.6081,-2.6081,-2.6081,0,0,-2.5567,-2.5609,-2.5627,-2.5687,-2.572,-2.575,-2.5776,-2.5807,-2.5829,-2.587,-2.5904,-2.5932,-2.5975,-2.6005,-2.6019,-2.6027,-2.6052,-2.6052,-2.605,-2.6052,-2.6067,-2.6066,-2.6065,-2.6081,-2.6081,-2.6081,0,0,-2.5558,-2.5594,-2.5618,-2.565,-2.57,-2.5732,-2.5738,-2.5794,-2.5815,-2.585,-2.5881,-2.5907,-2.5961,-2.5991,-2.6013,-2.6014,-2.6036,-2.6023,-2.6009,-2.6023,-2.6022,-2.6021,-2.6021,-2.602,-2.6024,-2.6024,-2.6024,0,-2.5534,-2.5583,-2.5627,-2.5656,-2.5681,-2.5722,-2.5745,-2.5774,-2.583,-2.5846,-2.5854,-2.5923,-2.5955,-2.5991,-2.5992,-2.6009,-2.6015,-2.6017,-2.6019,-2.6018,-2.6018,-2.6018,-2.6018,-2.6022,-2.6022,-2.6022,-2.6022,0,-2.5551,-2.5584,-2.5597,-2.5654,-2.568,-2.5706,-2.5751,-2.5772,-2.5797,-2.5827,-2.5861,-2.5901,-2.5942,-2.5953,-2.5976,-2.5992,-2.5996,-2.6011,-2.6024,-2.6014,-2.6015,-2.6016,-2.6019,-2.602,-2.602,-2.6021,0,0,-2.5515,-2.5595,-2.5599,-2.5625,-2.5682,-2.5707,-2.5734,-2.5776,-2.5793,-2.583,-2.5853,-2.5898,-2.5912,-2.5937,-2.5964,-2.5976,-2.5974,-2.599,-2.5992,-2.5985,-2.5993,-2.5981,-2.598,-2.5989,-2.5989,-2.5989,-2.5989,0,-2.5514,-2.5567,-2.5607,-2.5644,-2.5674,-2.5713,-2.5736,-2.5772,-2.5801,-2.5829,-2.5861,-2.5892,-2.5909,-2.5924,-2.5938,-2.5971,-2.5976,-2.5972,-2.6008,-2.6009,-2.5996,-2.5981,-2.5969,-2.5967,-2.599,-2.599,-2.599,0,-2.552,-2.5558,-2.5598,-2.5652,-2.5666,-2.5687,-2.5728,-2.5756,-2.5797,-2.5817,-2.5845,-2.5873,-2.5901,-2.5912,-2.595,-2.5946,-2.5964,-2.5982,-2.5983,-2.5987,-2.5999,-2.5985,-2.5967,-2.5967,-2.5991,-2.5991,-2.5991,0,-2.5488,-2.5549,-2.5582,-2.5602,-2.5666,-2.568,-2.5706,-2.5748,-2.5771,-2.5806,-2.5821,-2.5858,-2.5878,-2.5905,-2.5942,-2.5947,-2.5976,-2.599,-2.5992,-2.5991,-2.5996,-2.5995,-2.5981,-2.6007,-2.6007,-2.6007,-2.6007,0,-2.5483,-2.5506,-2.5569,-2.5588,-2.5614,-2.5659,-2.5683,-2.5712,-2.5749,-2.5774,-2.5809,-2.583,-2.5877,-2.5904,-2.5932,-2.5959,-2.5968,-2.5984,-2.5991,-2.5981,-2.5979,-2.5992,-2.5993,-2.6007,-2.6007,-2.6007,-2.6007,0,-2.5452,-2.5496,-2.5533,-2.5591,-2.5606,-2.5622,-2.5671,-2.569,-2.5721,-2.5752,-2.5761,-2.5809,-2.5843,-2.5882,-2.5927,-2.5946,-2.597,-2.5981,-2.5957,-2.5961,-2.5961,-2.596,-2.5954,-2.5955,-2.5981,-2.5981,-2.5981,0,-2.5446,-2.5465,-2.5525,-2.5545,-2.5572,-2.5603,-2.5627,-2.567,-2.5693,-2.5741,-2.5754,-2.5791,-2.5822,-2.5873,-2.5911,-2.5946,-2.5957,-2.5953,-2.5962,-2.5951,-2.5956,-2.5955,-2.5956,-2.595,-2.5949,-2.5949,-2.5949,0,-2.543,-2.545,-2.5484,-2.5525,-2.5553,-2.5587,-2.5622,-2.5636,-2.5686,-2.5709,-2.5745,-2.577,-2.5817,-2.5852,-2.5891,-2.5917,-2.594,-2.5945,-2.5948,-2.5937,-2.5922,-2.5929,-2.5949,-2.5945,-2.5946,-2.5946,-2.5946,-2.5946,-2.5411,-2.5429,-2.5475,-2.5511,-2.5542,-2.5574,-2.5595,-2.563,-2.5661,-2.5704,-2.5727,-2.5762,-2.5802,-2.5858,-2.5882,-2.5908,-2.5916,-2.592,-2.592,-2.592,-2.5917,-2.5918,-2.5916,-2.5916,-2.5916,-2.5916,-2.5916,0,-2.5396,-2.5427,-2.546,-2.5509,-2.5537,-2.5559,-2.5599,-2.562,-2.5651,-2.5687,-2.5718,-2.5758,-2.5792,-2.5833,-2.5869,-2.5882,-2.5894,-2.589,-2.5889,-2.5894,-2.5908,-2.5902,-2.588,-2.588,-2.588,-2.588,-2.588,-2.588,-2.5391,-2.5424,-2.5449,-2.5496,-2.5527,-2.5563,-2.5584,-2.5613,-2.5642,-2.5686,-2.5715,-2.5742,-2.5779,-2.5819,-2.585,-2.5861,-2.5872,-2.5865,-2.5879,-2.5891,-2.5894,-2.5897,-2.5892,-2.5867,-2.5867,-2.5863,-2.5863,-2.5863]}]]